This is the latest recevied weather packets stored in our database for station/object EB2EMZ-15. If no packets are shown the sender has not sent any weather packets the latest 10 day(s).
| Time | Temp. | Humidity | Pressure | Rain* | Wind** | Luminosity | Snow |
|---|---|---|---|---|---|---|---|
| 1778143218 | 21.67° C | 59% | 991.9 hPa | 0 mm | - | - | - |
| 1778142915 | 21.11° C | 59% | 991.9 hPa | 0 mm | - | - | - |
| 1778142617 | 21.11° C | 61% | 992.1 hPa | 0 mm | - | - | - |
| 1778142314 | 20.56° C | 63% | 992.1 hPa | 0 mm | - | - | - |
| 1778142017 | 20° C | 65% | 992.2 hPa | 0 mm | - | - | - |
| 1778141714 | 18.89° C | 69% | 992.5 hPa | 0 mm | - | - | - |
| 1778141417 | 17.78° C | 71% | 992.5 hPa | 0 mm | - | - | - |
| 1778141115 | 17.22° C | 74% | 992.4 hPa | 0 mm | - | - | - |
| 1778140814 | 16.11° C | 76% | 992.5 hPa | 0 mm | - | - | - |
| 1778140515 | 15.56° C | 77% | 992.5 hPa | 0 mm | - | - | - |
| 1778140217 | 14.44° C | 79% | 992.4 hPa | 0 mm | - | - | - |
| 1778139915 | 13.33° C | 80% | 992.5 hPa | 0 mm | - | - | - |
| 1778139617 | 12.78° C | 80% | 992.5 hPa | 0 mm | - | - | - |
| 1778139315 | 12.78° C | 81% | 992.5 hPa | 0 mm | - | - | - |
| 1778139018 | 12.22° C | 81% | 992.5 hPa | 0 mm | - | - | - |
| 1778138714 | 11.67° C | 82% | 992.6 hPa | 0 mm | - | - | - |
| 1778138417 | 11.67° C | 82% | 992.7 hPa | 0 mm | - | - | - |
| 1778138115 | 11.11° C | 82% | 992.8 hPa | 0 mm | - | - | - |
| 1778137818 | 11.11° C | 83% | 992.8 hPa | 0 mm | - | - | - |
| 1778137515 | 10.56° C | 83% | 992.8 hPa | 0 mm | - | - | - |
| 1778137214 | 10.56° C | 83% | 992.9 hPa | 0 mm | - | - | - |
| 1778136914 | 10.56° C | 83% | 992.9 hPa | 0 mm | - | - | - |
| 1778136618 | 10.56° C | 83% | 992.9 hPa | 0 mm | - | - | - |
| 1778136314 | 10° C | 83% | 992.9 hPa | 0 mm | - | - | - |
| 1778136018 | 10° C | 83% | 992.9 hPa | 0 mm | - | - | - |
* Rain latest hour (hover to see other rain measurements)
** Current wind speed in m/s (hover to see current wind gust speed)